GW3550 Weather Reports


Display with metric or nautical units.
time (UTC)temp
F
wind
direction
speed
MPH
gust
MPH
rain 1hr
in
rain 24hr
in
rain mn
in
humidity
%
barometer
mb
20260906103455 73 263 0.0 0.0 0.00 0.00 0.00 94 1015.1
20260906102950 73 262 0.0 1.0 0.00 0.00 0.00 94 1015.0
20260906102444 73 262 0.0 0.0 0.00 0.00 0.00 94 1015.1
20260906101939 74 261 1.0 3.0 0.00 0.00 0.00 92 1014.8
20260906101434 74 262 0.0 1.0 0.00 0.00 0.00 93 1015.0
20260906100930 73 256 0.0 2.0 0.00 0.00 0.00 94 1014.9
20260906100429 73 256 1.0 1.0 0.00 0.00 0.00 95 1015.1
20260906095924 72 256 1.0 2.0 0.00 0.00 0.00 97 1015.0
20260906095420 72 258 1.0 1.0 0.00 0.00 0.00 99 1015.0
20260906094914 72 258 0.0 1.0 0.00 0.00 0.00 99 1014.9
20260906094408 72 258 1.0 1.0 0.00 0.00 0.00 99 1015.1
20260906093905 72 258 0.0 0.0 0.00 0.00 0.00 99 1014.9
20260906093401 72 258 0.0 0.0 0.00 0.00 0.00 99 1015.0
20260906092855 72 235 0.0 0.0 0.00 0.00 0.00 99 1015.2
20260906092355 72 235 0.0 0.0 0.00 0.00 0.00 99 1015.1
20260906091850 72 245 0.0 0.0 0.00 0.00 0.00 99 1015.3
20260906091347 72 238 0.0 0.0 0.00 0.00 0.00 99 1015.1
20260906090843 72 241 0.0 0.0 0.00 0.00 0.00 99 1015.1
20260906090342 72 237 0.0 0.0 0.00 0.00 0.00 99 1015.2
20260906085836 72 241 0.0 0.0 0.00 0.00 0.00 99 1015.2
20260906085335 72 241 0.0 0.0 0.00 0.00 0.00 99 1015.1
20260906084830 72 237 0.0 0.0 0.00 0.00 0.00 99 1015.1
20260906084330 72 241 0.0 0.0 0.00 0.00 0.00 99 1015.2
20260906083824 72 241 0.0 0.0 0.00 0.00 0.00 99 1015.2
20260906083320 72 241 0.0 0.0 0.00 0.00 0.00 99 1015.2
20260906082815 72 241 0.0 0.0 0.00 0.00 0.00 99 1015.0
20260906082309 72 237 0.0 0.0 0.00 0.00 0.00 99 1014.9
20260906081800 72 241 0.0 1.0 0.00 0.00 0.00 99 1014.8
20260906081255 72 241 0.0 0.0 0.00 0.00 0.00 99 1014.9
20260906080751 72 237 0.0 0.0 0.00 0.00 0.00 99 1015.0
20260906080248 72 241 0.0 1.0 0.00 0.00 0.00 99 1014.9
20260906075741 72 246 0.0 1.0 0.00 0.00 0.00 99 1015.0
20260906075236 72 223 0.0 1.0 0.00 0.00 0.00 99 1015.1
20260906074731 72 255 1.0 2.0 0.00 0.00 0.00 99 1014.8
20260906074230 72 246 1.0 3.0 0.00 0.00 0.00 99 1014.9
20260906073725 72 241 1.0 2.0 0.00 0.00 0.00 99 1015.0
20260906073220 72 235 2.0 3.0 0.00 0.00 0.00 99 1015.2
20260906072715 71 233 0.0 0.0 0.00 0.00 0.00 99 1015.0
20260906072211 72 233 0.0 0.0 0.00 0.00 0.00 99 1015.2
20260906071707 72 233 0.0 0.0 0.00 0.00 0.00 99 1015.1
20260906071206 72 233 0.0 0.0 0.00 0.00 0.00 99 1015.2
20260906070703 72 233 0.0 0.0 0.00 0.00 0.00 99 1015.2
20260906070158 72 233 0.0 0.0 0.00 0.00 0.00 99 1015.0
20260906065658 72 233 0.0 0.0 0.00 0.00 0.00 99 1015.2
20260906065153 72 233 0.0 1.0 0.00 0.00 0.00 99 1015.2
20260906064648 72 233 0.0 1.0 0.00 0.00 0.00 99 1015.2
20260906064144 72 233 0.0 0.0 0.00 0.00 0.00 99 1015.2
20260906063639 72 233 0.0 0.0 0.00 0.00 0.00 99 1015.3
20260906063135 72 233 0.0 0.0 0.00 0.00 0.00 99 1015.1
20260906062631 72 233 0.0 0.0 0.00 0.00 0.00 99 1015.2
20260906062129 72 233 0.0 0.0 0.00 0.00 0.00 99 1015.3
20260906061625 73 233 0.0 0.0 0.00 0.00 0.00 99 1015.4
20260906061125 73 233 0.0 0.0 0.00 0.00 0.00 99 1015.5
20260906060622 73 233 0.0 0.0 0.00 0.00 0.00 99 1015.7
20260906060120 73 233 0.0 0.0 0.00 0.00 0.00 99 1015.4
20260906055615 73 233 0.0 0.0 0.00 0.00 0.00 99 1015.4
20260906055110 73 233 0.0 0.0 0.00 0.00 0.00 99 1015.6
20260906054610 74 237 0.0 3.0 0.00 0.00 0.00 99 1015.7
20260906054100 73 228 2.0 3.0 0.00 0.00 0.00 99 1015.6
20260906053556 74 251 0.0 3.0 0.00 0.00 0.00 99 1015.9
20260906053052 73 232 2.0 2.0 0.00 0.00 0.00 99 1016.0
20260906052547 73 237 1.0 2.0 0.00 0.00 0.00 99 1015.9
20260906052044 73 242 0.0 2.0 0.00 0.00 0.00 99 1016.1
20260906051539 73 238 0.0 1.0 0.00 0.00 0.00 99 1016.1
20260906051034 73 245 0.0 2.0 0.00 0.00 0.00 99 1016.2
20260906050529 72 234 1.0 2.0 0.00 0.00 0.00 99 1016.1
20260906050024 73 244 0.0 1.0 0.00 0.00 0.00 99 1016.1
20260906045523 72 237 0.0 0.0 0.00 0.00 0.00 99 1016.2
20260906045019 72 228 0.0 2.0 0.00 0.00 0.00 99 1016.3
20260906044514 72 233 0.0 1.0 0.00 0.00 0.00 99 1016.1
20260906044010 72 240 0.0 0.0 0.00 0.00 0.00 99 1016.2
20260906043505 72 240 0.0 2.0 0.00 0.00 0.00 99 1015.8
20260906043001 72 240 0.0 0.0 0.00 0.00 0.00 99 1016.2
20260906042459 72 240 0.0 0.0 0.00 0.00 0.00 99 1015.8
20260906041959 72 240 0.0 1.0 0.00 0.00 0.00 99 1015.8
20260906041455 72 240 0.0 0.0 0.00 0.00 0.00 99 1015.8
20260906040955 72 240 0.0 0.0 0.00 0.00 0.00 99 1016.1
20260906040450 72 240 0.0 2.0 0.00 0.00 0.00 99 1016.0
20260906035939 72 239 0.0 1.0 0.00 0.03 0.03 99 1015.8
20260906035434 72 246 0.0 0.0 0.00 0.03 0.03 99 1015.8
20260906034930 72 237 0.0 0.0 0.00 0.03 0.03 99 1015.9
20260906034425 71 237 0.0 0.0 0.00 0.03 0.03 99 1016.3
20260906033920 71 237 0.0 0.0 0.00 0.03 0.03 99 1016.1
20260906033415 72 237 0.0 0.0 0.00 0.03 0.03 99 1016.0
20260906032911 72 234 0.0 0.0 0.00 0.03 0.03 99 1016.1
20260906032407 71 240 0.0 0.0 0.00 0.03 0.03 99 1016.1
20260906031901 72 244 0.0 0.0 0.00 0.03 0.03 99 1016.1
20260906031356 71 234 0.0 0.0 0.00 0.03 0.03 99 1016.2
20260906030851 71 232 0.0 0.0 0.00 0.03 0.03 99 1016.3
20260906030346 71 235 0.0 0.0 0.00 0.03 0.03 99 1016.3
20260906025840 71 228 0.0 0.0 0.00 0.03 0.03 99 1016.5
20260906025334 72 230 0.0 0.0 0.00 0.03 0.03 99 1016.4
20260906024833 71 227 0.0 0.0 0.00 0.03 0.03 99 1016.2
20260906024327 72 227 0.0 0.0 0.00 0.03 0.03 99 1016.3
20260906023823 72 226 0.0 0.0 0.00 0.03 0.03 98 1016.8
20260906023319 71 224 0.0 0.0 0.00 0.03 0.03 98 1016.8
20260906022814 72 232 0.0 0.0 0.00 0.03 0.03 98 1016.6
20260906022309 72 232 0.0 0.0 0.00 0.03 0.03 98 1016.3
20260906021805 72 233 0.0 0.0 0.00 0.03 0.03 97 1016.3
20260906021304 72 235 0.0 0.0 0.00 0.03 0.03 97 1016.5
20260906020758 72 235 0.0 0.0 0.00 0.03 0.03 97 1016.7
20260906020252 73 235 0.0 0.0 0.00 0.03 0.03 96 1016.6
20260906015747 72 233 0.0 0.0 0.00 0.03 0.03 97 1016.6
20260906015245 72 231 0.0 0.0 0.00 0.03 0.03 96 1016.8
20260906014740 73 234 0.0 0.0 0.00 0.03 0.03 96 1016.7
20260906014236 73 241 0.0 0.0 0.00 0.03 0.03 96 1016.7
20260906013732 73 251 0.0 0.0 0.00 0.03 0.03 95 1016.6
20260906013232 73 217 0.0 0.0 0.00 0.03 0.03 96 1016.4
20260906012727 73 237 0.0 0.0 0.00 0.03 0.03 96 1016.1
20260906012222 73 237 0.0 0.0 0.00 0.03 0.03 97 1016.3
20260906011717 73 273 0.0 0.0 0.00 0.03 0.03 96 1016.2
20260906011211 73 280 0.0 0.0 0.00 0.03 0.03 96 1015.9
20260906010707 72 241 0.0 0.0 0.00 0.03 0.03 96 1015.9
20260906010203 72 176 0.0 2.0 0.00 0.03 0.03 97 1015.9
20260906005703 72 223 0.0 0.0 0.00 0.03 0.03 97 1015.9
20260906005202 72 220 0.0 0.0 0.00 0.03 0.03 97 1016.3
20260906004701 72 232 0.0 2.0 0.00 0.03 0.03 97 1016.2
20260906004156 72 228 0.0 0.0 0.00 0.03 0.03 97 1016.0
20260906003646 72 216 0.0 0.0 0.00 0.03 0.03 97 1015.5
20260906003142 72 220 0.0 0.0 0.00 0.03 0.03 96 1015.4
20260906002642 72 228 0.0 0.0 0.00 0.03 0.03 96 1015.4
20260906002136 73 230 0.0 0.0 0.00 0.03 0.03 96 1015.2
20260906001632 73 211 0.0 0.0 0.00 0.03 0.03 96 1015.3
20260906001131 73 231 0.0 0.0 0.00 0.03 0.03 96 1015.2
20260906000627 73 103 0.0 1.0 0.00 0.03 0.03 95 1014.8
20260906000123 73 102 0.0 1.0 0.00 0.03 0.03 95 1014.4
20260905235621 73 244 0.0 1.0 0.00 0.03 0.03 95 1014.4
20260905235117 73 244 0.0 1.0 0.00 0.03 0.03 95 1014.7
20260905234612 73 18 0.0 2.0 0.00 0.03 0.03 95 1014.6
20260905234108 73 232 2.0 2.0 0.00 0.03 0.03 95 1014.8
20260905233607 73 253 1.0 2.0 0.00 0.03 0.03 95 1015.0
20260905233102 73 277 0.0 0.0 0.00 0.03 0.03 96 1014.6
20260905232557 72 40 1.0 2.0 0.00 0.03 0.03 95 1015.0
20260905232053 73 260 0.0 1.0 0.00 0.03 0.03 96 1015.1
20260905231548 72 174 1.0 1.0 0.00 0.03 0.03 96 1015.1
20260905231044 72 118 0.0 0.0 0.00 0.03 0.03 97 1015.1
20260905230543 72 269 0.0 1.0 0.00 0.03 0.03 97 1015.1
20260905230042 72 182 0.0 1.0 0.00 0.03 0.03 96 1014.7
20260905225537 73 53 1.0 3.0 0.00 0.03 0.03 95 1014.8
20260905225032 73 146 0.0 0.0 0.00 0.03 0.03 94 1014.4
20260905224526 74 78 0.0 3.0 0.00 0.03 0.03 92 1014.5
20260905224026 75 15 4.0 6.0 0.00 0.03 0.03 89 1014.6
20260905223524 75 246 4.0 4.0 0.00 0.03 0.03 91 1014.4
20260905223019 74 252 1.0 2.0 0.00 0.03 0.03 89 1014.2
20260905222513 75 242 0.0 1.0 0.00 0.03 0.03 90 1014.3
20260905222008 74 272 2.0 3.0 0.00 0.03 0.03 89 1014.4
20260905221505 75 253 2.0 3.0 0.05 0.03 0.03 89 1014.7
20260905221001 75 245 2.0 2.0 0.05 0.03 0.03 83 1014.9
20260905220457 75 241 1.0 2.0 0.12 0.02 0.02 81 1015.2
20260905215955 76 225 2.0 2.0 0.12 0.02 0.02 80 1015.7
20260905215451 77 288 3.0 4.0 0.00 0.00 0.00 75 1016.0
20260905214948 76 238 6.0 8.0 0.00 0.00 0.00 74 1015.8
20260905214443 77 179 3.0 6.0 0.00 0.00 0.00 72 1015.6
20260905213937 74 49 10.0 14.0 0.00 0.00 0.00 75 1015.4
20260905213433 74 38 17.0 23.0 0.00 0.00 0.00 80 1015.4
20260905212928 75 46 23.0 32.0 0.00 0.00 0.00 75 1015.1
20260905212423 76 6 19.0 32.0 0.00 0.00 0.00 82 1014.9
20260905211922 80 44 9.0 15.0 0.00 0.00 0.00 70 1015.5
20260905211418 83 19 6.0 16.0 0.00 0.00 0.00 68 1015.4
20260905210915 93 144 8.0 21.0 0.00 0.00 0.00 61 1014.8
20260905210415 96 50 0.0 1.0 0.00 0.00 0.00 52 1014.1
20260905205914 95 48 0.0 0.0 0.00 0.00 0.00 56 1013.6
20260905205408 95 47 0.0 0.0 0.00 0.00 0.00 57 1013.6
20260905204902 95 32 1.0 2.0 0.00 0.00 0.00 51 1014.0
20260905204358 95 40 2.0 4.0 0.00 0.00 0.00 53 1014.2
20260905203851 96 0 4.0 7.0 0.00 0.00 0.00 52 1013.8
20260905203347 96 32 3.0 7.0 0.00 0.00 0.00 53 1014.1
20260905202842 98 157 2.0 7.0 0.00 0.00 0.00 53 1014.3
20260905202336 99 44 1.0 2.0 0.00 0.00 0.00 48 1014.4
20260905201832 96 237 1.0 2.0 0.00 0.00 0.00 51 1014.3
20260905201328 96 242 0.0 7.0 0.00 0.00 0.00 51 1014.5
20260905200828 97 51 3.0 3.0 0.00 0.00 0.00 49 1014.6
20260905200325 99 5 0.0 2.0 0.00 0.00 0.00 47 1014.5
20260905195821 100 188 0.0 1.0 0.00 0.00 0.00 48 1014.6
20260905195317 97 188 0.0 1.0 0.00 0.00 0.00 51 1014.6
20260905194813 96 187 0.0 1.0 0.00 0.00 0.00 49 1014.5
20260905194312 96 186 0.0 0.0 0.00 0.00 0.00 49 1014.5
20260905193812 96 76 1.0 3.0 0.00 0.00 0.00 49 1014.4
20260905193307 98 193 0.0 1.0 0.00 0.00 0.00 47 1014.7
20260905192802 97 70 2.0 4.0 0.00 0.00 0.00 47 1014.9
20260905192258 100 13 1.0 3.0 0.00 0.00 0.00 45 1014.7
20260905191757 100 232 2.0 3.0 0.00 0.00 0.00 45 1014.8
20260905191256 97 17 2.0 4.0 0.00 0.00 0.00 46 1014.9
20260905190755 98 72 2.0 4.0 0.00 0.00 0.00 46 1014.9
20260905190254 98 233 0.0 3.0 0.00 0.00 0.00 48 1015.0
20260905185747 98 241 1.0 3.0 0.00 0.00 0.00 46 1015.3
20260905185243 96 242 0.0 3.0 0.00 0.00 0.00 49 1015.2
20260905184737 96 358 0.0 3.0 0.00 0.00 0.00 48 1015.4
20260905184236 98 19 1.0 2.0 0.00 0.00 0.00 49 1015.1
20260905183735 99 245 2.0 4.0 0.00 0.00 0.00 47 1015.4
20260905183230 99 232 0.0 2.0 0.00 0.00 0.00 48 1015.5
20260905182724 98 205 0.0 1.0 0.00 0.00 0.00 48 1015.3
20260905182218 98 78 0.0 2.0 0.00 0.00 0.00 51 1015.3
20260905181714 96 57 0.0 1.0 0.00 0.00 0.00 55 1015.4
20260905181212 97 221 2.0 4.0 0.00 0.00 0.00 50 1015.6
20260905180707 96 154 0.0 1.0 0.00 0.00 0.00 50 1015.7
20260905180203 94 211 0.0 3.0 0.00 0.00 0.00 54 1015.8
20260905175701 94 37 4.0 6.0 0.00 0.00 0.00 53 1015.8
20260905175157 96 219 0.0 2.0 0.00 0.00 0.00 51 1015.7
20260905174653 98 231 0.0 0.0 0.00 0.00 0.00 53 1015.8
20260905174148 98 230 1.0 2.0 0.00 0.00 0.00 48 1015.9
20260905173644 95 75 1.0 4.0 0.00 0.00 0.00 51 1016.2
20260905173139 97 245 0.0 2.0 0.00 0.00 0.00 47 1016.2
20260905172638 97 33 4.0 6.0 0.00 0.00 0.00 47 1016.2
20260905172133 95 247 0.0 3.0 0.00 0.00 0.00 52 1016.2
20260905171629 96 59 3.0 4.0 0.00 0.00 0.00 52 1016.3
20260905171125 97 242 2.0 4.0 0.00 0.00 0.00 53 1016.5
20260905170621 96 218 1.0 1.0 0.00 0.00 0.00 53 1016.3
20260905170117 94 205 1.0 2.0 0.00 0.00 0.00 54 1016.5
20260905165617 97 323 4.0 6.0 0.00 0.00 0.00 52 1016.5
20260905165107 96 209 0.0 2.0 0.00 0.00 0.00 55 1016.7
20260905164602 95 345 1.0 4.0 0.00 0.00 0.00 57 1016.6
20260905164101 95 190 0.0 3.0 0.00 0.00 0.00 60 1016.9
20260905163558 94 232 1.0 2.0 0.00 0.00 0.00 57 1016.9
20260905163054 95 253 2.0 3.0 0.00 0.00 0.00 57 1016.8
20260905162550 94 343 1.0 1.0 0.00 0.00 0.00 57 1016.9
20260905162043 95 234 3.0 3.0 0.00 0.00 0.00 55 1016.9
20260905161544 94 319 0.0 4.0 0.00 0.00 0.00 58 1017.3
20260905161041 93 260 0.0 3.0 0.00 0.00 0.00 59 1017.3
20260905160540 95 53 3.0 3.0 0.00 0.00 0.00 56 1017.4
20260905160035 93 251 0.0 2.0 0.00 0.00 0.00 58 1017.4
20260905155534 93 162 0.0 2.0 0.00 0.00 0.00 58 1017.0
20260905155033 93 23 3.0 4.0 0.00 0.00 0.00 60 1017.4
20260905154528 94 30 0.0 3.0 0.00 0.00 0.00 57 1017.5
20260905154024 93 321 1.0 3.0 0.00 0.00 0.00 57 1017.5
20260905153519 93 237 0.0 2.0 0.00 0.00 0.00 57 1017.6
20260905153019 92 268 0.0 1.0 0.00 0.00 0.00 61 1017.5
20260905152513 92 242 0.0 2.0 0.00 0.00 0.00 62 1017.7
20260905152008 93 254 2.0 4.0 0.00 0.00 0.00 61 1017.6
20260905151503 93 49 2.0 2.0 0.00 0.00 0.00 59 1017.8
20260905150958 93 193 0.0 1.0 0.00 0.00 0.00 61 1017.8
20260905150453 91 233 2.0 2.0 0.00 0.00 0.00 63 1017.8
20260905145950 92 237 1.0 2.0 0.00 0.00 0.00 61 1018.0
20260905145445 91 225 2.0 2.0 0.00 0.00 0.00 65 1017.8
20260905144944 90 244 0.0 4.0 0.00 0.00 0.00 65 1017.8
20260905144440 89 233 0.0 2.0 0.00 0.00 0.00 66 1017.8
20260905143939 89 278 6.0 7.0 0.00 0.00 0.00 64 1017.7
20260905143432 89 235 5.0 7.0 0.00 0.00 0.00 66 1017.9
20260905142927 88 243 1.0 2.0 0.00 0.00 0.00 66 1017.9
20260905142426 87 241 2.0 4.0 0.00 0.00 0.00 67 1017.9
20260905141922 88 270 2.0 6.0 0.00 0.00 0.00 67 1018.1
20260905141416 88 229 3.0 3.0 0.00 0.00 0.00 69 1018.1
20260905140913 87 232 1.0 4.0 0.00 0.00 0.00 71 1017.9
20260905140408 87 258 2.0 2.0 0.00 0.00 0.00 71 1018.0
20260905135906 87 241 0.0 0.0 0.00 0.00 0.00 73 1018.0
20260905135402 86 245 0.0 3.0 0.00 0.00 0.00 74 1018.0
20260905134858 85 250 1.0 2.0 0.00 0.00 0.00 75 1018.1
20260905134356 85 246 2.0 3.0 0.00 0.00 0.00 76 1018.0
20260905133850 84 232 2.0 3.0 0.00 0.00 0.00 76 1018.3
20260905133346 84 239 0.0 1.0 0.00 0.00 0.00 80 1018.2
20260905132845 83 233 0.0 0.0 0.00 0.00 0.00 81 1018.1
20260905132341 82 255 2.0 3.0 0.00 0.00 0.00 79 1018.1
20260905131834 82 255 3.0 4.0 0.00 0.00 0.00 81 1018.4
20260905131330 83 223 1.0 2.0 0.00 0.00 0.00 79 1018.2
20260905130825 82 244 0.0 1.0 0.00 0.00 0.00 82 1018.3
20260905130324 81 245 0.0 2.0 0.00 0.00 0.00 83 1018.4
20260905125820 81 230 0.0 2.0 0.00 0.00 0.00 84 1018.5
20260905125314 81 230 0.0 1.0 0.00 0.00 0.00 83 1018.3
20260905124810 80 230 0.0 0.0 0.00 0.00 0.00 85 1018.2
20260905124307 80 226 0.0 0.0 0.00 0.00 0.00 85 1018.5
20260905123801 80 224 0.0 0.0 0.00 0.00 0.00 86 1018.3
20260905123258 79 224 0.0 1.0 0.00 0.00 0.00 86 1018.0
20260905122752 79 222 0.0 0.0 0.00 0.00 0.00 86 1018.2
20260905122252 79 222 0.0 0.0 0.00 0.00 0.00 88 1018.1
20260905121747 78 221 0.0 0.0 0.00 0.00 0.00 90 1018.3
20260905121244 76 231 0.0 0.0 0.00 0.00 0.00 92 1018.1
20260905120742 76 231 0.0 0.0 0.00 0.00 0.00 93 1018.2
20260905120237 75 231 0.0 0.0 0.00 0.00 0.00 94 1017.9
20260905115732 75 231 0.0 0.0 0.00 0.00 0.00 95 1018.0
20260905115231 74 231 0.0 0.0 0.00 0.00 0.00 96 1017.9
20260905114726 73 231 0.0 0.0 0.00 0.00 0.00 97 1017.8
20260905114224 73 231 0.0 0.0 0.00 0.00 0.00 98 1017.8
20260905113719 73 229 0.0 0.0 0.00 0.00 0.00 99 1017.8
20260905113215 72 229 0.0 0.0 0.00 0.00 0.00 99 1017.6
20260905112715 72 229 0.0 0.0 0.00 0.00 0.00 99 1017.5
20260905112210 72 229 0.0 0.0 0.00 0.00 0.00 99 1017.5
20260905111709 72 229 0.0 0.0 0.00 0.00 0.00 99 1017.5
20260905111209 72 229 0.0 0.0 0.00 0.00 0.00 99 1017.5
20260905110703 72 229 0.0 0.0 0.00 0.00 0.00 99 1017.4
20260905110157 72 229 0.0 0.0 0.00 0.00 0.00 99 1017.3
20260905105653 72 229 0.0 0.0 0.00 0.00 0.00 99 1017.3
20260905105151 72 229 0.0 0.0 0.00 0.00 0.00 99 1017.1
20260905104647 72 229 0.0 0.0 0.00 0.00 0.00 99 1017.5
20260905104143 72 223 0.0 0.0 0.00 0.00 0.00 99 1017.1